[[{"header":{"parameterUnit":"m.s-1","parameterCategory":1,"la1":30.2991,"la2":30.254,"lo1":-89.0895,"lo2":-89.0444,"dy":0.0017,"dx":0.0017,"nx":28,"ny":28,"refTime":"2023-10-11T03:00:00:Z","depth":0,"parameterNumber":2,"parameterNumberName":"U-component_of_WINDS"},"data":[0,0,0,0,0,0,0,0,0,0,0,0,0,0,0,0,0,0,0,0,0,0,0,0,0,0,0,0,0,0,0,0,0,0,0,0,0,0,0,0,0,0,0,0,0,0,0,0,0,0,0,0,0,0,0,0,0,0,-2.598,-2.598,0,-2.5961,-2.5961,-2.5961,-2.5874,-2.5872,-2.587,-2.5868,-2.5851,-2.5852,-2.5854,0,0,0,0,0,0,0,0,0,0,0,0,0,-2.5942,-2.5943,-2.598,-2.598,-2.598,-2.5961,-2.5961,-2.5961,-2.5875,-2.5872,-2.587,-2.5867,-2.5851,-2.5852,-2.5854,0,0,0,0,0,0,0,0,0,0,0,0,0,-2.5945,-2.5944,-2.598,-2.5934,-2.593,-2.5962,-2.5961,-2.5961,-2.5875,-2.5872,-2.5869,-2.5866,-2.585,-2.5852,-2.5854,-2.5929,0,0,-2.5861,-2.5862,0,0,0,0,0,0,0,0,-2.5945,-2.5946,-2.5941,-2.5938,-2.5933,-2.5917,-2.5941,-2.595,-2.5876,-2.5896,-2.5868,-2.5865,-2.5876,-2.5875,-2.5879,-2.5928,-2.5927,-2.5861,-2.5862,-2.5863,-2.5864,0,0,0,0,0,0,0,-2.5945,-2.5947,-2.5973,-2.5941,-2.5936,-2.5915,-2.5912,-2.5943,-2.5903,-2.5894,-2.5888,-2.5887,-2.5873,-2.5877,-2.5878,-2.5927,-2.5861,-2.5863,-2.5864,-2.5865,-2.6038,-2.6041,0,0,0,0,0,0,-2.5951,-2.5947,-2.5973,-2.5972,-2.5931,-2.5918,-2.5915,-2.5925,-2.5903,-2.5896,-2.5889,-2.5883,-2.5875,-2.5875,-2.5877,-2.5964,-2.5863,-2.5865,-2.5867,-2.6034,-2.6038,-2.6042,0,0,0,0,0,0,-2.595,-2.5954,-2.5974,-2.5958,-2.5959,-2.5922,-2.5935,-2.5926,-2.5931,-2.5899,-2.5892,-2.5901,-2.5872,-2.5874,-2.5917,-2.5962,-2.5866,-2.5868,-2.603,-2.6036,-2.604,-2.6138,0,0,0,0,0,0,-2.595,-2.5954,-2.5982,-2.5959,-2.596,-2.6014,-2.5937,-2.5928,-2.5934,-2.5926,-2.5908,-2.5902,-2.587,-2.5914,-2.5919,-2.5963,-2.587,-2.6026,-2.6033,-2.6039,-2.613,-2.6145,-2.6158,0,0,0,0,0,-2.5948,-2.601,-2.5984,-2.5988,-2.5994,-2.6017,-2.6017,-2.5979,-2.5938,-2.5966,-2.5946,-2.5903,-2.5956,-2.5919,-2.5924,-2.5969,-2.6023,-2.6031,-2.6038,-2.6124,-2.6142,-2.6158,0,0,0,0,0,0,-2.604,-2.6007,-2.5977,-2.6033,-2.6029,-2.6002,-2.6036,-2.5999,-2.6007,-2.5998,-2.595,-2.5947,-2.5998,-2.5987,-2.5947,-2.6041,-2.5982,-2.5991,-2.6046,-2.6063,-2.6077,-2.6079,-2.5872,0,0,0,0,0,-2.6067,-2.6088,-2.6057,-2.611,-2.6109,-2.6074,-2.6082,-2.6053,-2.6046,-2.6044,-2.6027,-2.6023,-2.6038,-2.605,-2.6062,-2.6128,-2.6123,-2.6162,-2.6175,-2.6187,-2.6196,-2.6231,-2.6248,-2.6066,-2.6066,-2.6066,0,0,-2.6123,-2.6107,-2.6123,-2.6128,-2.6121,-2.6145,-2.6072,-2.61,-2.6118,-2.6048,-2.6088,-2.6075,-2.6068,-2.6122,-2.6146,-2.6116,-2.6245,-2.6197,-2.6206,-2.6208,-2.624,-2.6257,-2.6273,-2.6071,-2.607,-2.6069,0,0,-2.6236,-2.6226,-2.6269,-2.6263,-2.6253,-2.6229,-2.6239,-2.6219,-2.6208,-2.6246,-2.6195,-2.6215,-2.6243,-2.624,-2.6242,-2.6354,-2.6315,-2.6359,-2.6433,-2.6468,-2.6482,-2.6494,-2.6536,-2.6551,-2.6368,-2.6368,-2.6368,0,-2.6307,-2.634,-2.6296,-2.6327,-2.6332,-2.6269,-2.6313,-2.6309,-2.6305,-2.6309,-2.6275,-2.6309,-2.6299,-2.6353,-2.6381,-2.6384,-2.6395,-2.6362,-2.6483,-2.6495,-2.6506,-2.6545,-2.6561,-2.6374,-2.6373,-2.6372,-2.6372,0,-2.6428,-2.6452,-2.6488,-2.6484,-2.6492,-2.653,-2.6492,-2.6505,-2.6475,-2.6455,-2.6495,-2.6481,-2.6491,-2.6501,-2.6471,-2.6551,-2.6532,-2.6492,-2.6432,-2.653,-2.6566,-2.658,-2.6382,-2.638,-2.6378,-2.6377,0,0,-2.66,-2.6571,-2.6586,-2.6583,-2.6568,-2.6586,-2.662,-2.6629,-2.6642,-2.664,-2.6669,-2.6694,-2.6656,-2.6658,-2.6628,-2.6658,-2.675,-2.6614,-2.6613,-2.6641,-2.6838,-2.687,-2.6888,-2.6723,-2.6726,-2.6728,-2.6839,0,-2.671,-2.6768,-2.6729,-2.6793,-2.6815,-2.6756,-2.6786,-2.678,-2.6762,-2.6778,-2.6757,-2.6777,-2.6724,-2.6726,-2.6753,-2.6733,-2.6789,-2.6724,-2.6751,-2.6752,-2.6756,-2.6906,-2.694,-2.7046,-2.6852,-2.6855,-2.6856,0,-2.6846,-2.685,-2.6917,-2.6897,-2.6905,-2.6933,-2.6938,-2.6953,-2.6946,-2.693,-2.6933,-2.6895,-2.6928,-2.6869,-2.6915,-2.6872,-2.688,-2.6872,-2.6875,-2.6877,-2.6812,-2.6914,-2.7078,-2.7095,-2.6878,-2.6876,-2.6875,0,-2.6967,-2.6989,-2.7032,-2.7032,-2.7009,-2.7031,-2.7022,-2.7011,-2.7019,-2.7023,-2.7028,-2.7036,-2.7041,-2.7049,-2.7014,-2.6974,-2.7066,-2.7002,-2.7055,-2.7056,-2.7078,-2.7078,-2.7248,-2.7081,-2.7081,-2.7081,-2.708,0,-2.7095,-2.7138,-2.7086,-2.7113,-2.716,-2.7115,-2.7163,-2.7148,-2.7139,-2.7162,-2.7111,-2.7134,-2.7086,-2.7104,-2.7078,-2.7121,-2.7123,-2.7112,-2.7105,-2.7118,-2.712,-2.7124,-2.7116,-2.7085,-2.7084,-2.7083,-2.7082,0,-2.7239,-2.7205,-2.7248,-2.7223,-2.7218,-2.7254,-2.7233,-2.7257,-2.7234,-2.7264,-2.7269,-2.7235,-2.7253,-2.7219,-2.7234,-2.7216,-2.7277,-2.7257,-2.728,-2.7274,-2.7329,-2.7325,-2.7509,-2.7532,-2.735,-2.7351,-2.7353,0,-2.7323,-2.7355,-2.7334,-2.7345,-2.734,-2.7359,-2.7366,-2.7323,-2.7333,-2.7327,-2.7352,-2.7366,-2.7376,-2.7409,-2.7386,-2.7397,-2.7378,-2.7442,-2.7379,-2.7392,-2.7381,-2.738,-2.7384,-2.7455,-2.7458,-2.7459,-2.7461,0,-2.7478,-2.7459,-2.7472,-2.7479,-2.7489,-2.7492,-2.7492,-2.7505,-2.7459,-2.7473,-2.7491,-2.7499,-2.7513,-2.7529,-2.7534,-2.7526,-2.7487,-2.748,-2.7493,-2.7508,-2.752,-2.7516,-2.7316,-2.7477,-2.7475,-2.7474,-2.7473,-2.7472,-2.7595,-2.7621,-2.761,-2.7626,-2.7621,-2.7622,-2.7643,-2.7624,-2.7638,-2.7646,-2.762,-2.7645,-2.7636,-2.7639,-2.7636,-2.7655,-2.7627,-2.7645,-2.765,-2.7656,-2.7666,-2.7516,-2.7656,-2.7655,-2.7655,-2.7654,-2.7654,0,-2.7748,-2.7738,-2.7753,-2.7754,-2.7767,-2.7726,-2.7724,-2.7738,-2.776,-2.7755,-2.7765,-2.7787,-2.7802,-2.7779,-2.7791,-2.781,-2.7793,-2.7815,-2.7814,-2.7813,-2.7689,-2.7678,-2.7829,-2.7829,-2.7829,-2.7829,-2.7829,-2.7829,-2.783,-2.7872,-2.7852,-2.7892,-2.7881,-2.7904,-2.7907,-2.7908,-2.7904,-2.793,-2.7942,-2.7927,-2.7915,-2.7925,-2.7937,-2.793,-2.7937,-2.7966,-2.7954,-2.7839,-2.7822,-2.7805,-2.7794,-2.7968,-2.7968,-2.8076,-2.8077,-2.8078]},{"header":{"parameterUnit":"m.s-1","parameterCategory":1,"la1":30.2991,"la2":30.254,"lo1":-89.0895,"lo2":-89.0444,"dy":0.0017,"dx":0.0017,"nx":28,"ny":28,"refTime":"2023-10-11T03:00:00:Z","depth":0,"parameterNumber":3,"parameterNumberName":"V-component_of_WINDS"},"data":[0,0,0,0,0,0,0,0,0,0,0,0,0,0,0,0,0,0,0,0,0,0,0,0,0,0,0,0,0,0,0,0,0,0,0,0,0,0,0,0,0,0,0,0,0,0,0,0,0,0,0,0,0,0,0,0,0,0,-2.1257,-2.1258,0,-2.1317,-2.1317,-2.1318,-2.1319,-2.1318,-2.1318,-2.1317,-2.1376,-2.1378,-2.138,0,0,0,0,0,0,0,0,0,0,0,0,0,-2.1142,-2.1144,-2.1257,-2.1258,-2.1259,-2.1317,-2.1317,-2.1318,-2.1319,-2.1318,-2.1318,-2.1317,-2.1375,-2.1378,-2.138,0,0,0,0,0,0,0,0,0,0,0,0,0,-2.1196,-2.1145,-2.1257,-2.1266,-2.1268,-2.1316,-2.1317,-2.1318,-2.132,-2.1318,-2.1317,-2.1316,-2.1374,-2.1377,-2.1381,-2.1423,0,0,-2.1391,-2.1392,0,0,0,0,0,0,0,0,-2.1193,-2.12,-2.1264,-2.1266,-2.1267,-2.1309,-2.1298,-2.1353,-2.132,-2.13,-2.1317,-2.1316,-2.1354,-2.1359,-2.1373,-2.1426,-2.1429,-2.1391,-2.1393,-2.1395,-2.1396,0,0,0,0,0,0,0,-2.1189,-2.1198,-2.1281,-2.1265,-2.1267,-2.1267,-2.1273,-2.1309,-2.1332,-2.1301,-2.1302,-2.1309,-2.1355,-2.137,-2.1374,-2.143,-2.1391,-2.1394,-2.1396,-2.1398,-2.1521,-2.1522,0,0,0,0,0,0,-2.1184,-2.1195,-2.1279,-2.1282,-2.1227,-2.127,-2.1277,-2.1297,-2.1332,-2.1336,-2.131,-2.1309,-2.1364,-2.137,-2.1376,-2.1429,-2.1395,-2.1398,-2.14,-2.152,-2.1521,-2.1523,0,0,0,0,0,0,-2.1182,-2.1192,-2.1276,-2.1239,-2.1249,-2.1273,-2.1295,-2.1299,-2.1313,-2.1338,-2.1342,-2.132,-2.1364,-2.1371,-2.1412,-2.1431,-2.1399,-2.1402,-2.1518,-2.152,-2.1522,-2.1535,0,0,0,0,0,0,-2.1178,-2.1191,-2.1208,-2.1239,-2.1251,-2.1312,-2.1297,-2.1301,-2.1319,-2.1319,-2.1349,-2.1353,-2.1363,-2.1407,-2.1415,-2.1435,-2.1405,-2.1517,-2.1519,-2.1521,-2.1533,-2.1537,-2.1541,0,0,0,0,0,-2.1174,-2.1209,-2.1209,-2.1219,-2.1274,-2.1313,-2.132,-2.1332,-2.1321,-2.1338,-2.1354,-2.1352,-2.1427,-2.1411,-2.142,-2.1442,-2.1515,-2.1518,-2.1521,-2.1532,-2.1537,-2.1541,0,0,0,0,0,0,-2.1179,-2.1213,-2.1213,-2.1259,-2.1283,-2.1313,-2.1335,-2.1336,-2.1363,-2.1362,-2.1374,-2.1381,-2.1421,-2.1435,-2.1416,-2.1485,-2.147,-2.1475,-2.1475,-2.148,-2.1484,-2.148,-2.1408,0,0,0,0,0,-2.1185,-2.1215,-2.1243,-2.1281,-2.1293,-2.1312,-2.133,-2.1336,-2.1361,-2.1371,-2.139,-2.1414,-2.1443,-2.1462,-2.149,-2.1535,-2.1541,-2.1554,-2.1558,-2.1561,-2.1565,-2.159,-2.1597,-2.1532,-2.1532,-2.1532,0,0,-2.1198,-2.1221,-2.1239,-2.1282,-2.1302,-2.1332,-2.1321,-2.1353,-2.1375,-2.1376,-2.1416,-2.143,-2.1457,-2.1501,-2.152,-2.1514,-2.1584,-2.1564,-2.1567,-2.157,-2.1594,-2.16,-2.1606,-2.1534,-2.1533,-2.1533,0,0,-2.1239,-2.1259,-2.1293,-2.1312,-2.1342,-2.1355,-2.1362,-2.1392,-2.1402,-2.1442,-2.1443,-2.1469,-2.1519,-2.1539,-2.1555,-2.1602,-2.1602,-2.161,-2.1631,-2.1656,-2.1661,-2.1665,-2.1683,-2.1689,-2.1614,-2.1614,-2.1614,0,-2.1252,-2.1299,-2.131,-2.1343,-2.1362,-2.1364,-2.1398,-2.1416,-2.1453,-2.1466,-2.1457,-2.152,-2.1538,-2.1586,-2.1597,-2.161,-2.162,-2.1608,-2.1659,-2.1664,-2.1668,-2.1685,-2.1692,-2.1615,-2.1615,-2.1615,-2.1615,0,-2.1313,-2.1346,-2.1369,-2.1406,-2.1427,-2.146,-2.1476,-2.1496,-2.15,-2.1513,-2.1554,-2.1575,-2.1608,-2.1619,-2.1624,-2.1668,-2.1663,-2.1657,-2.1642,-2.1675,-2.1691,-2.1698,-2.1617,-2.1616,-2.1616,-2.1616,0,0,-2.136,-2.1402,-2.1411,-2.1428,-2.146,-2.1485,-2.1517,-2.155,-2.1567,-2.1592,-2.162,-2.1661,-2.1656,-2.1674,-2.168,-2.1702,-2.1738,-2.1693,-2.1693,-2.1702,-2.1789,-2.1795,-2.1802,-2.1737,-2.1739,-2.174,-2.1787,0,-2.1405,-2.1465,-2.1476,-2.1528,-2.1558,-2.1559,-2.1588,-2.161,-2.1623,-2.1649,-2.1662,-2.1692,-2.1682,-2.1693,-2.1714,-2.1729,-2.1756,-2.1726,-2.1764,-2.1765,-2.1759,-2.181,-2.1817,-2.1861,-2.1793,-2.1794,-2.1795,0,-2.1467,-2.1494,-2.1549,-2.1578,-2.1591,-2.1616,-2.1647,-2.1672,-2.1697,-2.1705,-2.1725,-2.1729,-2.1762,-2.1745,-2.1791,-2.177,-2.1786,-2.1795,-2.1797,-2.1803,-2.1783,-2.1818,-2.1875,-2.1882,-2.1805,-2.1804,-2.1804,0,-2.1497,-2.1547,-2.1587,-2.1601,-2.1635,-2.1653,-2.1668,-2.1692,-2.171,-2.1737,-2.1749,-2.1778,-2.1794,-2.1817,-2.1828,-2.1814,-2.1873,-2.1857,-2.1881,-2.1881,-2.1895,-2.1894,-2.1956,-2.1902,-2.1902,-2.1902,-2.1902,0,-2.1547,-2.1581,-2.1601,-2.1626,-2.1664,-2.1675,-2.1712,-2.1726,-2.1747,-2.1774,-2.1776,-2.1801,-2.1813,-2.184,-2.1848,-2.1885,-2.1892,-2.1899,-2.1902,-2.19,-2.19,-2.1912,-2.191,-2.1904,-2.1903,-2.1903,-2.1903,0,-2.1589,-2.1603,-2.1647,-2.1675,-2.1683,-2.171,-2.1733,-2.1757,-2.1769,-2.1803,-2.1811,-2.1829,-2.1861,-2.1874,-2.1912,-2.1917,-2.1961,-2.196,-2.1953,-2.1954,-2.1978,-2.1976,-2.2051,-2.2062,-2.1999,-2.2,-2.2,0,-2.1621,-2.1647,-2.1678,-2.1697,-2.1712,-2.1742,-2.1761,-2.1772,-2.1792,-2.1822,-2.1842,-2.1873,-2.19,-2.1949,-2.1966,-2.1995,-2.1995,-2.2019,-2.2,-2.1998,-2.1997,-2.1996,-2.1999,-2.2024,-2.2024,-2.2025,-2.2025,0,-2.1677,-2.1682,-2.1711,-2.1742,-2.1765,-2.1789,-2.1813,-2.1828,-2.1842,-2.1864,-2.1897,-2.1917,-2.1956,-2.1987,-2.2017,-2.2031,-2.2031,-2.2031,-2.2038,-2.2038,-2.2034,-2.2038,-2.1964,-2.203,-2.2029,-2.2029,-2.2029,-2.2029,-2.1715,-2.1739,-2.1765,-2.1796,-2.1815,-2.1837,-2.1861,-2.1876,-2.1903,-2.1937,-2.1941,-2.1975,-2.1999,-2.2039,-2.2054,-2.2081,-2.2075,-2.2085,-2.2088,-2.2091,-2.2093,-2.2028,-2.2087,-2.2086,-2.2086,-2.2086,-2.2086,0,-2.1773,-2.1789,-2.1818,-2.1851,-2.1876,-2.1873,-2.1899,-2.1919,-2.195,-2.1973,-2.1998,-2.2035,-2.2065,-2.2084,-2.2114,-2.2132,-2.2132,-2.2139,-2.2139,-2.2142,-2.2097,-2.2088,-2.2138,-2.2138,-2.2138,-2.2138,-2.2138,-2.2138,-2.1805,-2.1846,-2.1854,-2.1904,-2.1919,-2.1954,-2.1969,-2.1989,-2.2007,-2.2049,-2.2074,-2.2086,-2.2107,-2.2138,-2.2165,-2.217,-2.2181,-2.2189,-2.2193,-2.2151,-2.2145,-2.214,-2.2132,-2.2191,-2.2191,-2.2237,-2.2237,-2.2238]}]]